Погода в Дубовском

Россия / Ростовская область     47°24′44″N   42°46′15″E
темп.,
°C
ветер,
м/с
пор.,
м/с
влажн.,
%
обл.,
%
осадки,
мм/ч
давл.,
гПа
погр.,
м
29 июля, чт
чт2900:00+24з333246 0.0 101426
03:00+22зюз343948 0.0 101446
06:00+23з234423 0.0 101469
09:00+30юз33300 0.0 1014742
12:00+33зюз33205 0.0 10133398
15:00+34з331918 0.0 10113574
18:00+32сз442272 0.0 10111261
21:00+27сз22350 0.0 101112
30 июля, пт
пт3000:00+25юз22363 0.0 101115
03:00+23юз23375 0.0 101223
06:00+23ююз34365 0.0 101285
09:00+31ююз57273 0.0 1012809
12:00+34юз66176 0.0 10113035
15:00+35юз55173 0.0 10093451
18:00+34ююз44182 0.0 10093249
21:00+27юз33255 0.0 100932
31 июля, сб
сб3100:00+25ю11366 0.0 101011
03:00+24ю34325 0.0 100944
06:00+24ююз23365 0.0 101058
09:00+31ю232418 0.0 1010497
12:00+35ю431768 0.0 10093271
15:00+36ю121516 0.0 10083725
18:00+34с331852 0.0 10081075
21:00+28св22255 0.0 101013
1 августа, вс
вс100:00+26вюв22240 0.0 101012
03:00+25юв332916 0.0 101022
06:00+26вюв33310 0.0 101148
09:00+33юв44200 0.0 1012688
12:00+36юв56140 0.0 10103316
15:00+38ююв56141 0.0 10093772
18:00+36юв55140 0.0 10093798
21:00+30вюв44190 0.0 101045
2 августа, пн
пн200:00+28в33210 0.0 101028
03:00+25юв45260 0.0 101060
06:00+26юв36400 0.0 1010119
09:00+34юв56240 0.0 1010870
12:00+37ююв56170 0.0 10092857
15:00+38ююв55160 0.0 10083610
18:00+37ююв45170 0.0 10083665
21:00+31ю22255 0.0 100811